Lid_Strength_Index
-1 -1 -1 -1 -1 -1 -1 -1 -1 -1 -1 -1 -1 -1 -1 -1 -1 1 4 3 2 -1 0 6 6 7 6 8 8 10 13 14 14 13 12 11 11 10 9 9 9 8 7 5 5
-1 -1 -1 -0 -0 -1 -0 0 -0 -0 -0 -1 -1 -1 -1 -1 2 4 1 -1 -2 -1 5 7 8 8 9 8 8 11 14 13 11 12 11 10 11 10 11 10 9 8 5 4 5
-1 -1 -1 -1 -0 0 0 1 -0 0 0 -1 -1 -1 -1 -0 4 5 -1 -1 -1 1 5 6 7 8 10 9 10 11 13 11 10 10 10 10 11 10 11 12 10 9 6 5 5
-1 -1 -1 -0 0 1 1 1 0 1 1 -0 -1 -1 -1 2 12 4 -1 -1 -1 4 5 7 9 10 11 11 9 12 11 11 9 9 10 10 10 11 11 10 9 8 4 4 4
-1 -1 -1 -0 1 0 0 0 -0 -0 0 0 -1 -1 1 6 5 4 0 1 4 5 7 8 9 10 12 11 11 12 12 10 9 10 10 10 11 11 11 9 9 8 4 5 4
-1 -1 -1 -1 1 1 -0 0 -0 -0 -1 -1 -0 -1 4 9 3 4 4 4 5 6 7 8 9 9 10 11 12 11 10 10 10 10 10 11 12 11 10 10 10 8 5 5 5
-1 -1 -1 -1 -0 1 1 -0 0 1 -1 -1 -0 1 6 7 3 5 4 5 5 6 8 7 8 10 10 11 9 11 13 12 11 11 11 11 14 12 11 10 10 10 8 6 5
-1 -1 -1 -1 -0 -0 1 1 0 1 -1 -1 -0 4 9 3 3 4 5 6 5 5 6 7 7 8 9 10 11 13 13 16 13 11 11 13 15 12 10 12 11 11 11 10 7
-1 -0 -1 -1 -1 -1 -1 0 1 0 -0 -1 4 7 9 2 5 5 5 6 6 6 7 5 7 10 10 13 15 14 18 16 14 11 11 13 14 12 11 11 12 11 11 11 10
-0 -0 -0 -0 -0 -0 -0 -0 1 2 2 2 4 11 7 7 4 5 5 5 7 8 8 8 11 12 13 15 18 16 16 15 16 12 13 14 13 11 10 11 11 11 11 11 11
1 -0 -0 0 0 0 1 5 10 11 8 11 9 10 6 5 4 6 5 6 7 9 12 11 13 15 13 13 14 14 15 16 14 12 13 13 13 12 11 12 12 11 11 11 10
2 1 0 0 0 0 2 6 8 8 11 9 8 7 6 6 7 6 5 9 10 12 11 13 15 12 12 12 13 14 15 16 14 12 13 14 13 12 11 11 11 11 12 11 11
2 2 2 1 0 2 3 4 2 4 10 8 9 9 8 7 9 7 7 8 11 12 12 14 13 11 11 13 13 14 15 15 15 14 15 15 16 15 12 12 11 11 11 11 11
3 3 3 2 2 2 4 3 1 3 11 10 10 9 8 7 9 6 7 8 10 12 11 12 11 12 13 13 13 15 13 13 14 16 18 16 20 16 13 13 12 12 12 12 11
4 4 3 1 3 4 2 1 2 4 19 10 9 6 7 9 9 8 7 8 11 11 11 13 12 12 13 12 12 13 12 13 14 16 17 17 19 17 15 14 12 12 12 11 11
5 4 4 2 2 3 1 2 4 13 18 11 9 10 10 10 9 8 9 8 9 11 12 12 11 11 12 11 12 11 12 13 14 16 20 17 18 19 17 14 14 12 11 10 10
5 6 5 4 4 2 1 4 13 18 10 12 11 10 11 11 11 10 11 12 13 15 15 13 13 11 11 12 11 13 15 19 20 20 21 18 19 17 14 13 13 12 11 10 10
5 5 5 4 4 3 3 9 17 14 13 10 10 10 12 11 11 11 12 13 12 14 15 15 16 12 11 12 12 13 15 19 22 22 20 17 19 15 13 12 12 11 12 11 10
5 7 7 4 4 3 7 15 15 13 10 11 11 13 13 11 11 12 13 13 12 12 15 16 16 12 12 11 11 13 15 13 17 24 21 19 17 14 12 13 12 11 10 10 10
9 9 9 3 3 4 11 13 12 9 9 10 13 12 15 14 13 13 13 11 11 11 11 13 16 13 12 11 12 13 11 15 17 23 24 20 19 17 14 12 12 10 10 10 10
10 13 8 4 3 7 14 13 11 8 8 10 12 13 13 13 13 15 14 12 11 11 10 11 13 15 13 13 14 13 14 14 14 17 20 22 19 15 14 13 11 11 10 10 10
11 16 8 5 9 9 12 10 9 9 7 9 9 11 12 12 14 14 14 13 11 11 13 11 13 17 15 13 12 14 13 14 17 18 18 18 18 12 11 11 11 10 9 9 9
11 12 6 5 12 12 10 10 9 10 9 9 10 9 9 11 13 12 12 10 10 10 11 11 15 19 16 14 13 14 13 13 14 15 17 19 18 12 12 11 11 11 11 9 9
10 14 10 7 9 11 12 12 12 9 10 9 9 9 10 12 10 12 11 10 9 9 8 9 13 16 17 15 14 15 14 13 14 18 16 16 15 14 12 11 10 10 10 9 9
10 12 11 14 12 11 11 11 12 13 10 9 11 11 11 13 12 12 10 10 9 8 9 10 15 14 13 12 12 14 14 13 14 15 17 16 15 13 12 10 9 11 10 10 9
11 12 11 12 11 10 11 13 13 12 12 12 12 11 10 12 11 13 11 11 11 9 10 10 15 13 16 13 12 14 13 13 13 13 14 14 14 11 11 11 11 10 10 10 10
6 8 10 11 12 11 12 12 11 10 10 9 10 11 11 11 10 10 10 9 9 10 11 11 13 14 18 14 14 16 14 13 13 12 12 14 12 11 11 11 11 10 10 11 11